CW9804 Weather Reports


Display with metric or nautical units.
time (UTC)temp
F
wind
direction
speed
MPH
gust
MPH
rain 1hr
in
rain 24hr
in
rain mn
in
humidity
%
barometer
mb
20201027063411 52 132 0.0 0.0 0.02 0.03 0.03 95 1008.7
20201027061918 52 124 0.0 0.0 0.03 0.03 0.03 95 1008.6
20201027060415 52 124 0.0 3.0 0.03 0.03 0.03 94 1008.4
20201027054914 52 92 0.0 0.0 0.02 0.02 0.02 94 1008.2
20201027053413 52 92 1.0 2.0 0.01 0.01 0.01 93 1008.2
20201027051914 52 92 0.0 1.0 0.00 0.00 0.00 92 1008.1
20201027050416 52 92 0.0 3.0 0.00 0.00 0.00 91 1007.9
20201027044914 52 90 0.0 0.0 0.00 0.00 0.00 90 1007.9
20201027043410 52 90 0.0 3.0 0.00 0.00 0.00 89 1007.8
20201027041912 52 82 0.0 2.0 0.00 0.00 0.00 89 1007.8
20201027040414 53 85 0.0 4.0 0.00 0.00 0.00 88 1007.8
20201027034914 53 120 0.0 1.0 0.00 0.00 0.00 87 1007.7
20201027033413 53 126 0.0 0.0 0.00 0.00 0.00 86 1007.7
20201027031911 53 126 0.0 1.0 0.00 0.00 0.00 85 1007.4
20201027030414 54 125 0.0 0.0 0.00 0.00 0.00 84 1007.4
20201027024910 54 125 1.0 3.0 0.00 0.00 0.00 84 1007.2
20201027023417 54 77 1.0 4.0 0.00 0.00 0.00 84 1007.2
20201027021912 54 44 2.0 3.0 0.00 0.00 0.00 83 1007.5
20201027020412 55 22 0.0 1.0 0.00 0.00 0.00 81 1007.7
20201027014909 55 103 0.0 2.0 0.00 0.00 0.00 80 1007.7
20201027013421 54 164 3.0 9.0 0.00 0.00 0.00 81 1007.6
20201027011915 55 139 0.0 3.0 0.00 0.00 0.00 83 1007.9
20201027010414 55 139 0.0 3.0 0.00 0.00 0.00 82 1007.9
20201027004914 56 139 0.0 1.0 0.00 0.00 0.00 81 1008.1
20201027003419 57 153 2.0 3.0 0.00 0.00 0.00 79 1008.0
20201027001921 57 148 1.0 5.0 0.00 0.00 0.00 79 1008.2
20201027000427 57 88 0.0 3.0 0.00 0.00 0.00 79 1008.3
20201026234917 58 88 3.0 5.0 0.00 0.00 0.00 77 1008.2
20201026233414 58 103 0.0 2.0 0.00 0.00 0.00 76 1008.2
20201026231914 59 159 4.0 7.0 0.00 0.00 0.00 75 1008.2
20201026230413 59 190 1.0 6.0 0.00 0.00 0.00 75 1008.3
20201026224914 57 205 2.0 8.0 0.00 0.00 0.00 79 1008.5
20201026223422 58 187 0.0 2.0 0.00 0.00 0.00 80 1008.5
20201026221917 57 284 0.0 4.0 0.00 0.00 0.00 81 1008.6
20201026220414 57 139 0.0 2.0 0.00 0.00 0.00 80 1008.6
20201026214914 57 236 1.0 6.0 0.00 0.00 0.00 80 1008.3
20201026213415 57 120 0.0 0.0 0.00 0.00 0.00 80 1008.5
20201026211917 57 120 1.0 4.0 0.00 0.00 0.00 80 1008.6
20201026210413 57 184 1.0 2.0 0.00 0.00 0.00 81 1008.4
20201026204913 57 184 0.0 0.0 0.00 0.00 0.00 80 1008.4
20201026203422 58 188 3.0 5.0 0.00 0.00 0.00 78 1008.4
20201026201914 58 84 2.0 4.0 0.00 0.00 0.00 77 1008.3
20201026200415 58 251 2.0 5.0 0.00 0.00 0.00 77 1008.6
20201026194913 58 138 2.0 3.0 0.00 0.00 0.00 76 1008.4
20201026193412 58 125 2.0 3.0 0.00 0.00 0.00 75 1008.3
20201026191914 58 134 0.0 2.0 0.00 0.00 0.00 75 1008.3
20201026190412 59 163 3.0 5.0 0.00 0.00 0.00 75 1008.1
20201026184913 59 163 0.0 2.0 0.00 0.00 0.00 72 1008.2
20201026183412 60 169 0.0 0.0 0.00 0.00 0.00 71 1008.3
20201026181912 61 169 2.0 4.0 0.00 0.00 0.00 69 1008.3
20201026180415 61 306 3.0 8.0 0.00 0.00 0.00 67 1008.2
20201026174913 61 216 4.0 12.0 0.00 0.00 0.00 67 1008.3
20201026173417 62 190 2.0 13.0 0.00 0.00 0.00 67 1008.4
20201026171912 62 238 6.0 10.0 0.00 0.00 0.00 67 1008.6
20201026170412 62 207 5.0 10.0 0.00 0.00 0.00 67 1008.4
20201026164911 62 265 8.0 13.0 0.00 0.00 0.00 67 1008.1
20201026163424 62 209 2.0 8.0 0.00 0.00 0.00 68 1008.1
20201026161921 62 197 10.0 17.0 0.00 0.00 0.00 67 1007.9
20201026160415 63 246 5.0 9.0 0.00 0.00 0.00 66 1008.0
20201026154911 63 182 5.0 9.0 0.00 0.00 0.00 65 1008.0
20201026153414 63 281 9.0 13.0 0.00 0.00 0.00 64 1007.8
20201026151912 64 279 7.0 13.0 0.00 0.00 0.00 65 1007.9
20201026150411 64 248 9.0 15.0 0.00 0.00 0.00 64 1007.9
20201026144912 64 229 8.0 18.0 0.00 0.00 0.00 63 1007.8
20201026143411 65 199 5.0 16.0 0.00 0.00 0.00 63 1007.8
20201026141914 65 240 4.0 23.0 0.00 0.00 0.00 62 1007.9
20201026140410 65 282 14.0 20.0 0.00 0.00 0.00 62 1007.7
20201026134912 65 268 11.0 27.0 0.00 0.00 0.00 61 1007.8
20201026133411 65 219 13.0 23.0 0.00 0.00 0.00 61 1007.8
20201026131910 65 271 6.0 17.0 0.00 0.00 0.00 63 1007.9
20201026130412 64 198 6.0 9.0 0.00 0.00 0.00 64 1008.0
20201026124913 64 277 10.0 12.0 0.00 0.00 0.00 64 1008.1
20201026123410 65 202 7.0 16.0 0.00 0.00 0.00 64 1008.2
20201026121910 65 269 10.0 18.0 0.00 0.00 0.00 63 1008.2
20201026120412 66 217 6.0 12.0 0.00 0.00 0.00 63 1008.4
20201026114910 65 239 8.0 19.0 0.00 0.00 0.00 64 1008.5
20201026113411 65 263 10.0 14.0 0.00 0.00 0.00 65 1008.5
20201026111909 64 252 13.0 18.0 0.00 0.00 0.00 66 1008.6
20201026110411 64 231 4.0 12.0 0.00 0.00 0.00 66 1008.7
20201026104915 64 263 7.0 11.0 0.00 0.00 0.00 67 1009.0
20201026103418 63 285 3.0 17.0 0.00 0.00 0.00 68 1009.1
20201026101914 63 205 9.0 19.0 0.00 0.00 0.00 67 1009.2
20201026100414 62 195 11.0 19.0 0.00 0.00 0.00 68 1009.2
20201026094921 62 226 6.0 18.0 0.00 0.00 0.00 68 1009.3
20201026093414 62 221 5.0 18.0 0.00 0.00 0.00 70 1009.5
20201026091914 61 178 6.0 18.0 0.00 0.00 0.00 69 1009.5
20201026090414 61 245 8.0 22.0 0.00 0.00 0.00 69 1009.5
20201026084918 61 205 18.0 22.0 0.00 0.00 0.00 69 1009.4
20201026083414 61 223 11.0 20.0 0.00 0.00 0.00 69 1009.4
20201026081916 61 214 11.0 27.0 0.00 0.00 0.00 68 1009.4
20201026080417 61 211 7.0 17.0 0.00 0.00 0.00 70 1009.4
20201026074917 61 242 12.0 24.0 0.00 0.00 0.00 70 1009.5
20201026073414 61 211 5.0 19.0 0.00 0.00 0.00 72 1009.4
20201026071914 60 225 16.0 22.0 0.00 0.00 0.00 73 1009.4
20201026070413 60 222 8.0 18.0 0.00 0.00 0.00 74 1009.3
20201026064913 60 229 9.0 23.0 0.00 0.00 0.00 74 1009.2